Princeton, MN

4:12 PM CDT on July 26, 2017 (GMT -0500)
Princeton Municipal

Weather History for KPNM - November, 2012

Change the Weather History Date:

Wednesday, November 7, 2012

  Actual Average Record
Temperature  
Mean Temperature 40 °F -  
Max Temperature 46 °F 42 °F 62 °F (2002)
Min Temperature 35 °F 26 °F 12 °F (2003)
Degree Days  
Heating Degree Days 24    
Moisture  
Dew Point 32 °F    
Average Humidity 76    
Maximum Humidity 93    
Minimum Humidity 50    
Precipitation  
Precipitation 0.00 in - - ()
Sea Level Pressure  
Sea Level Pressure 30.05 in    
Wind  
Wind Speed 3 mph (SSW)    
Max Wind Speed 8 mph    
Max Gust Speed -    
Visibility 10 miles    
Events      
Averages and records for this station are not official NWS values.
T = Trace of Precipitation, MM = Missing Value Source: NWS Daily Summary

Daily Weather History Graph

Daily Weather History Graph

Search for Another Location

Airport or City:

Trip Planner

Search our weather history database for the weather conditions in past years. The results will help you decide how hot, cold, wet, or windy it might be!

Date:

Astronomy

Nov. 07, 2012 Rise Set
Actual Time 7:03 AM CST 4:52 PM CST
Civil Twilight 6:31 AM CST 5:23 PM CST
Nautical Twilight 5:56 AM CST 5:59 PM CST
Astronomical Twilight 5:21 AM CST 6:34 PM CST
Moon No Moon Rise 1:20 PM CST (11/7)
Length of Visible Light 10h 52m
Length of Day
9h 49m
Last Quarter, 43% of the Moon is Illuminated
Nov 7
Last Quarter
Nov 13
New
Nov 20
First Quarter
Nov 28
Full
Dec 6
Last Quarter

Hourly Weather History & Observations

Time (CST) Temp. Windchill Dew Point Humidity Pressure Visibility Wind Dir Wind Speed Gust Speed Precip Events Conditions
12:11 AM 37.4 °F 32.8 °F 33.8 °F 87% 29.98 in 10.0 mi NW 5.8 mph - N/A   Overcast
12:32 AM 37.4 °F 32.8 °F 33.8 °F 87% 29.99 in 10.0 mi WNW 5.8 mph - N/A   Overcast
12:51 AM 37.4 °F 32.8 °F 33.8 °F 87% 29.99 in 10.0 mi WNW 5.8 mph - N/A   Overcast
1:11 AM 37.4 °F 33.8 °F 33.8 °F 87% 30.00 in 10.0 mi WNW 4.6 mph - N/A   Overcast
1:30 AM 37.4 °F 32.8 °F 33.8 °F 87% 30.00 in 10.0 mi WNW 5.8 mph - N/A   Overcast
1:51 AM 37.4 °F 33.8 °F 33.8 °F 87% 30.00 in 10.0 mi WNW 4.6 mph - N/A   Overcast
2:11 AM 37.4 °F 33.8 °F 33.8 °F 87% 30.01 in 10.0 mi WNW 4.6 mph - N/A   Overcast
2:51 AM 37.4 °F 33.8 °F 33.8 °F 87% 30.02 in 10.0 mi WNW 4.6 mph - N/A   Overcast
3:11 AM 37.4 °F 34.9 °F 33.8 °F 87% 30.02 in 10.0 mi WNW 3.5 mph - N/A   Overcast
3:31 AM 37.4 °F 33.8 °F 33.8 °F 87% 30.03 in 10.0 mi WNW 4.6 mph - N/A   Overcast
3:51 AM 37.4 °F 34.9 °F 33.8 °F 87% 30.03 in 10.0 mi WNW 3.5 mph - N/A   Overcast
4:11 AM 37.4 °F - 33.8 °F 87% 30.04 in 10.0 mi Calm Calm - N/A   Overcast
4:31 AM 35.6 °F - 33.8 °F 93% 30.05 in 10.0 mi Calm Calm - N/A   Overcast
4:51 AM 35.6 °F - 33.8 °F 93% 30.05 in 10.0 mi Calm Calm - N/A   Overcast
5:11 AM 35.6 °F - 33.8 °F 93% 30.05 in 10.0 mi Calm Calm - N/A   Overcast
5:32 AM 35.6 °F 32.8 °F 33.8 °F 93% 30.06 in 10.0 mi West 3.5 mph - N/A   Overcast
5:51 AM 35.6 °F - 33.8 °F 93% 30.06 in 10.0 mi Calm Calm - N/A   Overcast
6:11 AM 35.6 °F - 33.8 °F 93% 30.06 in 10.0 mi Calm Calm - N/A   Overcast
6:32 AM 35.6 °F 32.8 °F 33.8 °F 93% 30.06 in 10.0 mi West 3.5 mph - N/A   Overcast
6:51 AM 35.6 °F 32.8 °F 33.8 °F 93% 30.07 in 10.0 mi West 3.5 mph - N/A   Overcast
7:11 AM 35.6 °F 32.8 °F 33.8 °F 93% 30.07 in 10.0 mi West 3.5 mph - N/A   Overcast
7:31 AM 37.4 °F - 33.8 °F 87% 30.08 in 10.0 mi Calm Calm - N/A   Overcast
7:51 AM 37.4 °F - 33.8 °F 87% 30.08 in 10.0 mi Calm Calm - N/A   Overcast
8:12 AM 37.4 °F - 33.8 °F 87% 30.08 in 10.0 mi Calm Calm - N/A   Overcast
8:31 AM 37.4 °F - 33.8 °F 87% 30.09 in 10.0 mi Calm Calm - N/A   Overcast
8:51 AM 37.4 °F - 33.8 °F 87% 30.10 in 10.0 mi Calm Calm - N/A   Overcast
9:11 AM 39.2 °F - 33.8 °F 81% 30.10 in 10.0 mi Calm Calm - N/A   Overcast
9:31 AM 39.2 °F - 33.8 °F 81% 30.09 in 10.0 mi Calm Calm - N/A   Overcast
9:51 AM 39.2 °F - 33.8 °F 81% 30.10 in 10.0 mi Calm Calm - N/A   Mostly Cloudy
10:11 AM 42.8 °F - 35.6 °F 76% 30.10 in 10.0 mi Calm Calm - N/A   Overcast
10:31 AM 41.0 °F - 33.8 °F 76% 30.10 in 10.0 mi Calm Calm - N/A   Overcast
10:51 AM 42.8 °F - 33.8 °F 70% 30.10 in 10.0 mi Calm Calm - N/A   Overcast
11:12 AM 42.8 °F - 33.8 °F 70% 30.10 in 10.0 mi Calm Calm - N/A   Mostly Cloudy
11:31 AM 44.6 °F - 33.8 °F 66% 30.09 in 10.0 mi Calm Calm - N/A   Clear
11:51 AM 44.6 °F - 33.8 °F 66% 30.08 in 10.0 mi Calm Calm - N/A   Scattered Clouds
12:12 PM 44.6 °F - 32.0 °F 61% 30.07 in 10.0 mi Calm Calm - N/A   Mostly Cloudy
12:31 PM 44.6 °F 43.1 °F 30.2 °F 57% 30.07 in 10.0 mi WSW 3.5 mph - N/A   Overcast
12:51 PM 46.4 °F - 30.2 °F 53% 30.06 in 10.0 mi Calm Calm - N/A   Overcast
1:12 PM 46.4 °F 44.3 °F 28.4 °F 50% 30.06 in 10.0 mi West 4.6 mph - N/A   Overcast
1:31 PM 44.6 °F - 28.4 °F 53% 30.05 in 10.0 mi Calm Calm - N/A   Overcast
1:51 PM 46.4 °F - 28.4 °F 50% 30.05 in 10.0 mi Calm Calm - N/A   Overcast
2:12 PM 46.4 °F 44.3 °F 30.2 °F 53% 30.05 in 10.0 mi SW 4.6 mph - N/A   Overcast
2:31 PM 46.4 °F 44.3 °F 30.2 °F 53% 30.05 in 10.0 mi South 4.6 mph - N/A   Overcast
2:51 PM 46.4 °F 45.2 °F 30.2 °F 53% 30.05 in 10.0 mi SW 3.5 mph - N/A   Overcast
3:11 PM 44.6 °F - 30.2 °F 57% 30.05 in 10.0 mi Calm Calm - N/A   Overcast
3:36 PM 44.6 °F 43.1 °F 30.2 °F 57% 30.05 in 10.0 mi South 3.5 mph - N/A   Overcast
3:51 PM 44.6 °F - 30.2 °F 57% 30.05 in 10.0 mi Calm Calm - N/A   Overcast
4:11 PM 44.6 °F 43.1 °F 30.2 °F 57% 30.05 in 10.0 mi South 3.5 mph - N/A   Overcast
4:31 PM 44.6 °F 43.1 °F 30.2 °F 57% 30.05 in 10.0 mi South 3.5 mph - N/A   Overcast
5:11 PM 42.8 °F 41.1 °F 32.0 °F 66% 30.04 in 10.0 mi SE 3.5 mph - N/A   Overcast
5:31 PM 42.8 °F 41.1 °F 30.2 °F 61% 30.05 in 10.0 mi SSE 3.5 mph - N/A   Overcast
5:51 PM 42.8 °F 40.1 °F 32.0 °F 66% 30.05 in 10.0 mi SE 4.6 mph - N/A   Overcast
6:11 PM 42.8 °F 40.1 °F 32.0 °F 66% 30.05 in 10.0 mi SE 4.6 mph - N/A   Overcast
6:31 PM 42.8 °F 40.1 °F 32.0 °F 66% 30.05 in 10.0 mi SE 4.6 mph - N/A   Overcast
6:51 PM 41.0 °F 39.0 °F 32.0 °F 70% 30.05 in 10.0 mi SE 3.5 mph - N/A   Overcast
7:11 PM 39.2 °F 35.9 °F 30.2 °F 70% 30.05 in 10.0 mi SE 4.6 mph - N/A   Mostly Cloudy
7:31 PM 39.2 °F 35.9 °F 30.2 °F 70% 30.04 in 10.0 mi SE 4.6 mph - N/A   Scattered Clouds
7:51 PM 37.4 °F 34.9 °F 30.2 °F 75% 30.04 in 10.0 mi SE 3.5 mph - N/A   Mostly Cloudy
8:11 PM 37.4 °F 33.8 °F 30.2 °F 75% 30.04 in 10.0 mi SE 4.6 mph - N/A   Mostly Cloudy
8:31 PM 37.4 °F 33.8 °F 30.2 °F 75% 30.04 in 10.0 mi SE 4.6 mph - N/A   Scattered Clouds
8:51 PM 37.4 °F 32.8 °F 30.2 °F 75% 30.03 in 10.0 mi SE 5.8 mph - N/A   Clear
9:11 PM 37.4 °F 32.8 °F 30.2 °F 75% 30.03 in 10.0 mi SE 5.8 mph - N/A   Clear
9:31 PM 35.6 °F 31.7 °F 30.2 °F 81% 30.03 in 10.0 mi SE 4.6 mph - N/A   Clear
9:51 PM 35.6 °F 30.7 °F 30.2 °F 81% 30.03 in 10.0 mi SSE 5.8 mph - N/A   Clear
10:11 PM 35.6 °F 30.7 °F 30.2 °F 81% 30.03 in 10.0 mi SSE 5.8 mph - N/A   Clear
10:31 PM 35.6 °F 31.7 °F 30.2 °F 81% 30.04 in 10.0 mi SSE 4.6 mph - N/A   Clear
10:52 PM 37.4 °F 32.8 °F 30.2 °F 75% 30.04 in 10.0 mi SSE 5.8 mph - N/A   Clear
11:11 PM 37.4 °F 32.8 °F 32.0 °F 81% 30.03 in 10.0 mi SE 5.8 mph - N/A   Scattered Clouds
11:31 PM 37.4 °F 31.4 °F 32.0 °F 81% 30.02 in 10.0 mi SE 8.1 mph - N/A   Scattered Clouds
11:52 PM 37.4 °F 32.1 °F 30.2 °F 75% 30.02 in 10.0 mi SSE 6.9 mph - N/A   Scattered Clouds